Location: Bastelaar
(51.0950°N, 3.8602°E)
Time: 06:41:48
(UTC+00:00)

Cosmos 841 Rocket - Pass Details

Date: 18 November 2025
Orbit: 742 x 768 km, 74.0° (Epoch: 11 December)

Event Time Altitude Azimuth Distance (km) Brightness Sun altitude
Rises 17:25:24 0° 337° (NNW) 3,248 6.9 -14.3°
Reaches altitude 10° 17:27:52 10° 343° (NNW) 2,319 6.0 -14.7°
Maximum altitude 17:33:00 49° 59° (ENE) 986 3.7 -15.5°
Drops below altitude 10° 17:38:04 10° 134° (SE) 2,304 5.6 -16.2°
Enters shadow 17:38:54 - 137° (SE) 2,612 5.9 -16.4°
